When you browse on this site, cookies collect data to enhance your experience and personalize the content and advertising you see.
Visit our Privacy Policy to learn more. By continuing to use the site, you agree to this use of cookies and data.
  • In Lithuania
  • List of Countries
  • For 7 days
  • Water Temperature
  • Weather Map
  • Weather Widgets
  • user-avatar
    Login

    Hourly Weather Pisarevo

    Today, 4 June, Thursday

    Time Temperature Precipitation Wind Pressure Humidity
    00:00 +12°C° 4.4 mm 3 mps 735 mmHg 97%
    01:00 +12°C° 0 mm 3 mps 736 mmHg 97%
    02:00 +12°C° 0 mm 3 mps 736 mmHg 97%
    03:00 +12°C° 0 mm 2 mps 736 mmHg 97%
    04:00 +12°C° 0 mm 2 mps 736 mmHg 97%
    05:00 +13°C° 0 mm 2 mps 736 mmHg 96%
    06:00 +13°C° 0 mm 2 mps 736 mmHg 95%
    07:00 +13°C° 0 mm 3 mps 736 mmHg 92%
    08:00 +14°C° 0 mm 3 mps 736 mmHg 88%
    09:00 +17°C° 0 mm 3 mps 737 mmHg 84%
    10:00 +17°C° 0.1 mm 3 mps 737 mmHg 80%
    11:00 +18°C° 0.1 mm 3 mps 737 mmHg 76%
    12:00 +19°C° 0.1 mm 3 mps 737 mmHg 72%
    13:00 +19°C° 0.6 mm 4 mps 737 mmHg 73%
    14:00 +19°C° 0.6 mm 5 mps 737 mmHg 74%
    15:00 +19°C° 0.6 mm 6 mps 737 mmHg 75%
    16:00 +19°C° 0.2 mm 6 mps 737 mmHg 77%
    17:00 +17°C° 0.2 mm 6 mps 738 mmHg 78%
    18:00 +17°C° 0.2 mm 5 mps 738 mmHg 80%
    19:00 +15°C° 0 mm 5 mps 738 mmHg 84%
    20:00 +14°C° 0 mm 4 mps 738 mmHg 87%
    21:00 +13°C° 0 mm 3 mps 739 mmHg 91%
    22:00 +12°C° 0 mm 3 mps 739 mmHg 92%
    23:00 +12°C° 0 mm 3 mps 740 mmHg 93%

    Tomorrow, 5 June, Friday

    Time Temperature Precipitation Wind Pressure Humidity
    00:00 +11°C° 0 mm 3 mps 740 mmHg 94%
    01:00 +11°C° 0 mm 3 mps 741 mmHg 95%
    02:00 +11°C° 0 mm 3 mps 741 mmHg 95%
    03:00 +11°C° 0 mm 3 mps 741 mmHg 95%
    04:00 +11°C° 0 mm 4 mps 741 mmHg 93%
    05:00 +12°C° 0 mm 4 mps 741 mmHg 91%
    06:00 +12°C° 0 mm 4 mps 741 mmHg 90%
    07:00 +13°C° 0 mm 5 mps 741 mmHg 86%
    08:00 +15°C° 0 mm 6 mps 742 mmHg 82%
    09:00 +16°C° 0 mm 6 mps 742 mmHg 79%
    10:00 +17°C° 0.4 mm 6 mps 742 mmHg 77%
    11:00 +17°C° 0.4 mm 7 mps 741 mmHg 74%
    12:00 +18°C° 0.4 mm 7 mps 741 mmHg 72%
    13:00 +18°C° 0.4 mm 7 mps 741 mmHg 73%
    14:00 +18°C° 0.4 mm 7 mps 741 mmHg 73%
    15:00 +18°C° 0.4 mm 7 mps 741 mmHg 74%
    16:00 +16°C° 0.9 mm 6 mps 741 mmHg 80%
    17:00 +14°C° 0.9 mm 6 mps 741 mmHg 86%
    18:00 +13°C° 0.9 mm 5 mps 741 mmHg 92%
    19:00 +13°C° 0 mm 4 mps 742 mmHg 92%
    20:00 +13°C° 0 mm 4 mps 742 mmHg 93%
    21:00 +12°C° 0 mm 4 mps 742 mmHg 94%
    22:00 +12°C° 0 mm 4 mps 742 mmHg 95%
    23:00 +12°C° 0 mm 4 mps 742 mmHg 96%

    Day after tomorrow, 6 June, Saturday

    Time Temperature Precipitation Wind Pressure Humidity
    00:00 +12°C° 0 mm 3 mps 742 mmHg 97%
    01:00 +12°C° 0 mm 3 mps 743 mmHg 97%
    02:00 +11°C° 0 mm 3 mps 743 mmHg 97%
    03:00 +11°C° 0 mm 3 mps 743 mmHg 98%
    04:00 +12°C° 0 mm 3 mps 743 mmHg 97%
    05:00 +13°C° 0 mm 3 mps 743 mmHg 97%
    06:00 +13°C° 0 mm 3 mps 743 mmHg 96%
    07:00 +14°C° 0 mm 3 mps 743 mmHg 94%
    08:00 +15°C° 0 mm 4 mps 744 mmHg 92%
    09:00 +18°C° 0 mm 4 mps 744 mmHg 91%
    10:00 +19°C° 0.1 mm 4 mps 744 mmHg 88%
    11:00 +20°C° 0.1 mm 4 mps 744 mmHg 86%
    12:00 +21°C° 0.1 mm 4 mps 745 mmHg 83%
    13:00 +21°C° 0.5 mm 4 mps 745 mmHg 81%
    14:00 +22°C° 0.5 mm 4 mps 745 mmHg 78%
    15:00 +23°C° 0.5 mm 4 mps 745 mmHg 76%
    16:00 +24°C° 0.8 mm 3 mps 745 mmHg 78%
    17:00 +24°C° 0.8 mm 3 mps 744 mmHg 80%
    18:00 +24°C° 0.8 mm 3 mps 744 mmHg 82%
    19:00 +22°C° 0.1 mm 3 mps 745 mmHg 85%
    20:00 +20°C° 0.1 mm 3 mps 745 mmHg 88%
    21:00 +19°C° 0.1 mm 3 mps 745 mmHg 91%
    22:00 +19°C° 0 mm 3 mps 745 mmHg 92%
    23:00 +18°C° 0 mm 3 mps 746 mmHg 93%

    7 June, Sunday

    Time Temperature Precipitation Wind Pressure Humidity
    00:00 +18°C° 0 mm 3 mps 746 mmHg 94%
    01:00 +17°C° 0 mm 3 mps 746 mmHg 94%
    02:00 +17°C° 0 mm 3 mps 746 mmHg 94%
    03:00 +17°C° 0 mm 3 mps 747 mmHg 95%
    04:00 +17°C° 0 mm 3 mps 747 mmHg 94%
    05:00 +18°C° 0 mm 3 mps 747 mmHg 94%
    06:00 +18°C° 0 mm 3 mps 747 mmHg 94%
    07:00 +19°C° 0 mm 3 mps 748 mmHg 91%
    08:00 +21°C° 0 mm 3 mps 748 mmHg 87%
    09:00 +22°C° 0 mm 3 mps 748 mmHg 84%
    10:00 +24°C° 0 mm 3 mps 748 mmHg 81%
    11:00 +25°C° 0 mm 3 mps 748 mmHg 77%
    12:00 +26°C° 0 mm 4 mps 749 mmHg 74%
    13:00 +26°C° 0.1 mm 4 mps 748 mmHg 72%
    14:00 +26°C° 0.1 mm 4 mps 748 mmHg 71%
    15:00 +27°C° 0.1 mm 4 mps 748 mmHg 69%
    16:00 +26°C° 0 mm 3 mps 748 mmHg 72%
    17:00 +26°C° 0 mm 3 mps 748 mmHg 75%
    18:00 +26°C° 0 mm 2 mps 748 mmHg 78%
    19:00 +24°C° 0 mm 2 mps 748 mmHg 81%
    20:00 +23°C° 0 mm 2 mps 748 mmHg 83%
    21:00 +20°C° 0 mm 2 mps 748 mmHg 85%
    22:00 +20°C° 0 mm 2 mps 748 mmHg 87%
    23:00 +19°C° 0 mm 2 mps 748 mmHg 89%

    8 June, Monday

    Time Temperature Precipitation Wind Pressure Humidity
    00:00 +19°C° 0 mm 2 mps 749 mmHg 90%
    01:00 +18°C° 0 mm 2 mps 749 mmHg 91%
    02:00 +18°C° 0 mm 2 mps 749 mmHg 91%
    03:00 +18°C° 0 mm 2 mps 749 mmHg 91%
    04:00 +19°C° 0 mm 1 mps 749 mmHg 90%
    05:00 +20°C° 0 mm 1 mps 749 mmHg 89%
    06:00 +20°C° 0 mm 1 mps 749 mmHg 88%
    07:00 +22°C° 0 mm 1 mps 749 mmHg 83%
    08:00 +23°C° 0 mm 1 mps 749 mmHg 79%
    09:00 +24°C° 0 mm 1 mps 749 mmHg 74%
    10:00 +25°C° 0 mm 1 mps 749 mmHg 71%
    11:00 +26°C° 0 mm 1 mps 749 mmHg 67%
    12:00 +27°C° 0 mm 1 mps 749 mmHg 64%
    13:00 +27°C° 0 mm 1 mps 749 mmHg 63%
    14:00 +27°C° 0 mm 1 mps 748 mmHg 62%
    15:00 +28°C° 0 mm 1 mps 748 mmHg 61%
    16:00 +27°C° 0 mm 1 mps 748 mmHg 64%
    17:00 +27°C° 0 mm 1 mps 748 mmHg 66%
    18:00 +27°C° 0 mm 1 mps 748 mmHg 69%
    19:00 +25°C° 0 mm 1 mps 748 mmHg 72%
    20:00 +22°C° 0 mm 0 mps 747 mmHg 75%
    21:00 +20°C° 0 mm 0 mps 747 mmHg 79%
    22:00 +19°C° 0 mm 0 mps 747 mmHg 80%
    23:00 +19°C° 0 mm 0 mps 748 mmHg 82%

    9 June, Tuesday

    Time Temperature Precipitation Wind Pressure Humidity
    00:00 +18°C° 0 mm 0 mps 748 mmHg 84%
    01:00 +18°C° 0 mm 0 mps 748 mmHg 84%
    02:00 +18°C° 0 mm 0 mps 748 mmHg 85%
    03:00 +17°C° 0 mm 0 mps 748 mmHg 86%
    04:00 +20°C° 0 mm 1 mps 748 mmHg 86%
    05:00 +21°C° 0 mm 1 mps 748 mmHg 86%
    06:00 +21°C° 0 mm 1 mps 748 mmHg 86%
    07:00 +22°C° 0 mm 1 mps 748 mmHg 82%
    08:00 +24°C° 0 mm 1 mps 748 mmHg 78%
    09:00 +25°C° 0 mm 1 mps 748 mmHg 74%
    10:00 +26°C° 0 mm 1 mps 748 mmHg 71%
    11:00 +27°C° 0 mm 1 mps 748 mmHg 67%
    12:00 +27°C° 0 mm 1 mps 748 mmHg 64%
    13:00 +28°C° 0.1 mm 1 mps 748 mmHg 62%
    14:00 +28°C° 0.1 mm 1 mps 748 mmHg 61%
    15:00 +28°C° 0.1 mm 1 mps 748 mmHg 60%
    16:00 +28°C° 0.2 mm 1 mps 748 mmHg 64%
    17:00 +28°C° 0.2 mm 1 mps 748 mmHg 68%
    18:00 +28°C° 0.2 mm 1 mps 748 mmHg 72%
    19:00 +26°C° 0 mm 1 mps 748 mmHg 76%
    20:00 +25°C° 0 mm 1 mps 748 mmHg 80%
    21:00 +23°C° 0 mm 1 mps 748 mmHg 84%
    22:00 +20°C° 0 mm 0 mps 748 mmHg 85%
    23:00 +20°C° 0 mm 0 mps 748 mmHg 87%
    Show more